User: anonymous   Login
Location: Unspecified
(0.0000°N, 0.0000°E)
Time: 14:40:14
(UTC+00:00)
Language:

Courier 1B Rocket - Orbit

View from above orbital plane
View from above orbital plane
View from above satellite
View from above satellite

Ground track
Ground track

The orbit data is extracted from the following two-line orbital elements,

1 00059U 60013B   14295.73182005  .00000168  00000-0  10177-3 0  9827
2 00059 028.2511 023.7471 0189303 237.1929 121.0253 13.52901583667286
Epoch (UTC): 22 October 2014 17:33:49
Eccentricity: 0.0189303
inclination: 28.2511°
perigee height: 921 km
apogee height: 1202 km
right ascension of ascending node: 23.7471°
argument of perigee: 237.1929°
revolutions per day: 13.52901583
mean anomaly at epoch: 121.0253°
orbit number at epoch: 66728

The dashed part of the orbit path shows where the satellite is in the earth's shadow,  

DLR